Flag for Canada Weather past 2 weeks in Cumberland County, Nova Scotia, Canada

Now
64 °F

Mild.


Feels Like: 64 °F
Forecast: 55 / 76 °F
Wind: 1 mph from Northwest

Location: Kentville

Current Time: Jul 4, 2015 at 9:49:38 AM

Latest Report: Jul 4, 2015 at 9:00 AM


Visibility: N/A

Pressure: 30.01 "Hg

Humidity: 68%

Dew point: 53 °F

Location of Cumberland CountyLocation

Historic Weather in Cumberland County — Graph

°F

Cumberland County temperature yesterday

Maximum temperature yesterday: 74 °F (at 3:00 PM)
Minimum temperature yesterday: 57 °F (at 6:00 AM)
Average temperature yesterday: 66 °F

Past Weeks' High & Low Weather Summary

 TemperatureHumidityPressure
High78 °F (Jul 1, 4:00 PM)100% (Jun 20, 7:00 AM)30.21 "Hg (Jun 20, 7:00 AM)
Low45 °F (Jun 21, 4:00 AM)26% (Jul 3, 4:00 PM)29.57 "Hg (Jun 22, 5:00 AM)
Average60 °F76%29.92 "Hg
* Reported Jun 19 9:00 AM — Jul 4 9:00 AM, Cumberland County, Weather by CustomWeather, © 2015

Note: Actual official high and low records may vary slightly from our data, if they occured in-between our weather recording intervals... More about our weather records

Advertising

Cumberland County weather history for previous 24 hours

 ConditionsComfort  
Time TempWeatherWind HumidityBarometerVisibility
9:00 AM
Sat, Jul 4
64 °FMild.1 mph68%30.01 "HgN/A
8:00 AM58 °FCool.1 mph75%29.99 "HgN/A
7:00 AM55 °FCool.2 mph77%29.98 "HgN/A
6:00 AM54 °FCool.2 mph75%29.97 "HgN/A
5:00 AM54 °FCool.2 mph73%29.96 "HgN/A
4:00 AM54 °FCool.2 mph72%29.95 "HgN/A
3:00 AM55 °FCool.2 mph71%29.94 "HgN/A
2:00 AM56 °FCool.2 mph68%29.93 "HgN/A
1:00 AM58 °FCool.1 mph62%29.93 "HgN/A
12:00 AM60 °FRefreshingly cool.1 mph59%29.91 "HgN/A
11:00 PM
Fri, Jul 3
62 °FMild.8 mph53%29.91 "HgN/A
10:00 PM64 °FMild.8 mph51%29.89 "HgN/A
9:00 PM67 °FMild.9 mph45%29.86 "HgN/A
8:00 PM70 °FMild.9 mph42%29.85 "HgN/A
7:00 PM71 °FMild.10 mph39%29.82 "HgN/A
6:00 PM73 °FMild.10 mph36%29.82 "HgN/A
5:00 PM73 °FMild.12 mph36%29.82 "HgN/A
4:00 PM74 °FMild.14 mph26%29.82 "HgN/A
3:00 PM74 °FMild.12 mph30%29.81 "HgN/A
2:00 PM73 °FMild.13 mph34%29.81 "HgN/A
1:00 PM72 °FMild.8 mph44%29.81 "HgN/A
12:00 PM70 °FMild.6 mph52%29.83 "HgN/A
11:00 AM67 °FMild.3 mph54%29.84 "HgN/A
10:00 AM64 °FMild.3 mph68%29.84 "HgN/A
9:00 AM62 °FCool.2 mph72%29.85 "HgN/A
Weather by CustomWeather, © 2015

See weather overviewHow to use our weather pages